Location: Unspecified
(0.0000°N, 0.0000°E)
Time: 06:07:47
(UTC+00:00)

S-56A Canister/Altair - Pass Details

Date: 26 May 2024
Orbit: 637 x 2489 km, 38.9° (Epoch: 21 June)

Event Time Altitude Azimuth Distance (km) Brightness Sun altitude
Rises 02:33:32 0° 240° (WSW) 5,768 - -46.3°
Reaches altitude 10° 02:37:11 10° 243° (WSW) 4,915 - -45.6°
Exits shadow 02:51:21 57° 317° (NW) 2,799 10.0 -42.5°
Maximum altitude 02:51:23 57° 318° (NW) 2,799 10.0 -42.5°
Drops below altitude 10° 03:05:16 10° 34° (NE) 4,779 12.1 -39.4°
Sets 03:08:48 0° 38° (NE) 5,604 12.7 -38.7°
